Time,TemperatureF,DewpointF,PressureIn,WindDirection,WindDirectionDegrees,WindSpeedMPH,WindSpeedGustMPH,Humidity,HourlyPrecipIn,Conditions,Clouds,dailyrainin,SolarRadiationWatts/m^2,SoftwareType,DateUTC
2013-04-26 00:22:00,45.0,34.0,30.13,SSW,204,2.0,3.0,65,-99.99,,,-99.99,0.000000,,2013-04-26 07:22:00,
2013-04-26 00:31:00,45.0,34.0,30.13,SSW,204,2.0,3.0,65,-99.99,,,-99.99,0.000000,,2013-04-26 07:31:00,
2013-04-26 01:21:00,41.0,32.0,30.14,East,80,2.0,3.0,69,-99.99,,,-99.99,0.000000,,2013-04-26 08:21:00,
2013-04-26 02:21:00,38.0,32.0,30.15,ENE,64,2.0,4.0,77,-99.99,,,-99.99,0.000000,,2013-04-26 09:21:00,
2013-04-26 02:40:00,41.0,28.0,30.16,East,91,3.0,4.0,59,-99.99,,,-99.99,0.000000,,2013-04-26 09:40:00,
2013-04-26 03:22:00,41.0,28.0,30.16,East,91,3.0,4.0,59,-99.99,,,-99.99,0.000000,,2013-04-26 10:22:00,
2013-04-26 03:33:00,41.0,28.0,30.16,East,91,3.0,4.0,59,-99.99,,,-99.99,0.000000,,2013-04-26 10:33:00,
2013-04-26 03:40:00,39.0,28.0,30.18,ESE,110,1.0,2.0,65,-99.99,,,-99.99,0.000000,,2013-04-26 10:40:00,
2013-04-26 04:22:00,39.0,28.0,30.18,ESE,110,1.0,2.0,65,-99.99,,,-99.99,0.000000,,2013-04-26 11:22:00,
2013-04-26 04:32:00,39.0,28.0,30.18,ESE,110,1.0,2.0,65,-99.99,,,-99.99,0.000000,,2013-04-26 11:32:00,
2013-04-26 05:21:00,34.0,31.0,30.19,SSW,206,1.0,2.0,86,-99.99,,,-99.99,0.000000,,2013-04-26 12:21:00,
2013-04-26 05:40:00,35.0,33.0,30.21,SW,215,1.0,2.0,90,-99.99,,,-99.99,0.000000,,2013-04-26 12:40:00,
2013-04-26 07:21:00,34.0,31.0,30.23,ESE,112,1.0,2.0,90,-99.99,,,-99.99,50.000000,,2013-04-26 14:21:00,
2013-04-26 07:40:00,41.0,34.0,30.26,SSE,159,1.0,2.0,76,-99.99,,,-99.99,230.000000,,2013-04-26 14:40:00,
2013-04-26 08:21:00,41.0,34.0,30.26,SSE,159,1.0,2.0,76,-99.99,,,-99.99,230.000000,,2013-04-26 15:21:00,
2013-04-26 08:33:00,41.0,34.0,30.26,SSE,159,1.0,2.0,76,-99.99,,,-99.99,230.000000,,2013-04-26 15:33:00,
2013-04-26 08:40:00,49.0,34.0,30.26,West,263,1.0,2.0,55,-99.99,,,-99.99,450.000000,,2013-04-26 15:40:00,
2013-04-26 09:33:00,49.0,34.0,30.26,West,263,1.0,2.0,55,-99.99,,,-99.99,450.000000,,2013-04-26 16:33:00,
2013-04-26 09:40:00,55.0,33.0,30.28,NW,311,2.0,3.0,44,-99.99,,,-99.99,660.000000,,2013-04-26 16:40:00,
2013-04-26 10:21:00,55.0,33.0,30.28,NW,311,2.0,3.0,44,-99.99,,,-99.99,660.000000,,2013-04-26 17:21:00,
2013-04-26 10:31:00,55.0,33.0,30.28,NW,311,2.0,3.0,44,-99.99,,,-99.99,660.000000,,2013-04-26 17:31:00,
2013-04-26 10:40:00,60.0,34.0,30.28,SW,233,2.0,3.0,37,-99.99,,,-99.99,830.000000,,2013-04-26 17:40:00,
2013-04-26 11:22:00,60.0,34.0,30.28,SW,233,2.0,3.0,37,-99.99,,,-99.99,830.000000,,2013-04-26 18:22:00,
2013-04-26 11:33:00,60.0,34.0,30.28,SW,233,2.0,3.0,37,-99.99,,,-99.99,830.000000,,2013-04-26 18:33:00,
2013-04-26 11:40:00,66.0,27.0,30.28,SW,233,1.0,2.0,23,-99.99,,,-99.99,950.000000,,2013-04-26 18:40:00,
2013-04-26 12:22:00,66.0,27.0,30.28,SW,233,1.0,2.0,23,-99.99,,,-99.99,950.000000,,2013-04-26 19:22:00,
2013-04-26 12:31:00,66.0,27.0,30.28,SW,233,1.0,2.0,23,-99.99,,,-99.99,950.000000,,2013-04-26 19:31:00,
2013-04-26 12:40:00,68.0,26.0,30.27,SW,220,2.0,4.0,20,-99.99,,,-99.99,990.000000,,2013-04-26 19:40:00,
2013-04-26 13:21:00,68.0,26.0,30.27,SW,220,2.0,4.0,20,-99.99,,,-99.99,990.000000,,2013-04-26 20:21:00,
2013-04-26 13:32:00,68.0,26.0,30.27,SW,220,2.0,4.0,20,-99.99,,,-99.99,990.000000,,2013-04-26 20:32:00,
2013-04-26 13:40:00,70.0,26.0,30.25,South,190,4.0,8.0,19,-99.99,,,-99.99,980.000000,,2013-04-26 20:40:00,
2013-04-26 14:21:00,70.0,26.0,30.25,South,190,4.0,8.0,19,-99.99,,,-99.99,980.000000,,2013-04-26 21:21:00,
2013-04-26 14:32:00,70.0,26.0,30.25,South,190,4.0,8.0,19,-99.99,,,-99.99,980.000000,,2013-04-26 21:32:00,
2013-04-26 14:40:00,73.0,28.0,30.23,SW,218,3.0,5.0,19,-99.99,,,-99.99,910.000000,,2013-04-26 21:40:00,
2013-04-26 15:33:00,73.0,28.0,30.23,SW,218,3.0,5.0,19,-99.99,,,-99.99,910.000000,,2013-04-26 22:33:00,
2013-04-26 15:40:00,75.0,29.0,30.21,ESE,114,2.0,6.0,18,-99.99,,,-99.99,770.000000,,2013-04-26 22:40:00,
2013-04-26 16:32:00,75.0,29.0,30.21,ESE,114,2.0,6.0,18,-99.99,,,-99.99,770.000000,,2013-04-26 23:32:00,
2013-04-26 16:40:00,75.0,26.0,30.20,WNW,282,2.0,4.0,16,-99.99,,,-99.99,600.000000,,2013-04-26 23:40:00,
2013-04-26 17:21:00,75.0,26.0,30.20,WNW,282,2.0,4.0,16,-99.99,,,-99.99,600.000000,,2013-04-27 00:21:00,
2013-04-26 17:32:00,75.0,26.0,30.20,WNW,282,2.0,4.0,16,-99.99,,,-99.99,600.000000,,2013-04-27 00:32:00,
2013-04-26 17:40:00,77.0,24.0,30.20,SW,224,1.0,2.0,14,-99.99,,,-99.99,380.000000,,2013-04-27 00:40:00,
2013-04-26 18:21:00,77.0,24.0,30.20,SW,224,1.0,2.0,14,-99.99,,,-99.99,380.000000,,2013-04-27 01:21:00,
2013-04-26 18:32:00,77.0,24.0,30.20,SW,224,1.0,2.0,14,-99.99,,,-99.99,380.000000,,2013-04-27 01:32:00,
2013-04-26 18:40:00,70.0,36.0,30.20,West,278,10.0,14.0,29,-99.99,,,-99.99,170.000000,,2013-04-27 01:40:00,
2013-04-26 19:22:00,70.0,36.0,30.20,West,278,10.0,14.0,29,-99.99,,,-99.99,170.000000,,2013-04-27 02:22:00,
2013-04-26 19:40:00,67.0,39.0,30.21,WNW,286,12.0,18.0,36,-99.99,,,-99.99,10.000000,,2013-04-27 02:40:00,
2013-04-26 20:22:00,67.0,39.0,30.21,WNW,286,12.0,18.0,36,-99.99,,,-99.99,10.000000,,2013-04-27 03:22:00,
2013-04-26 20:32:00,67.0,39.0,30.21,WNW,286,12.0,18.0,36,-99.99,,,-99.99,10.000000,,2013-04-27 03:32:00,
2013-04-26 20:40:00,66.0,37.0,30.22,WNW,284,12.0,16.0,35,-99.99,,,-99.99,0.000000,,2013-04-27 03:40:00,
2013-04-26 21:22:00,66.0,37.0,30.22,WNW,284,12.0,16.0,35,-99.99,,,-99.99,0.000000,,2013-04-27 04:22:00,
2013-04-26 21:33:00,66.0,37.0,30.22,WNW,284,12.0,16.0,35,-99.99,,,-99.99,0.000000,,2013-04-27 04:33:00,
2013-04-26 21:40:00,61.0,38.0,30.25,ESE,107,9.0,18.0,42,-99.99,,,-99.99,0.000000,,2013-04-27 04:40:00,
2013-04-26 22:22:00,61.0,38.0,30.25,ESE,107,9.0,18.0,42,-99.99,,,-99.99,0.000000,,2013-04-27 05:22:00,
2013-04-26 22:32:00,61.0,38.0,30.25,ESE,107,9.0,18.0,42,-99.99,,,-99.99,0.000000,,2013-04-27 05:32:00,
2013-04-26 22:40:00,58.0,37.0,30.27,SSE,163,4.0,6.0,46,-99.99,,,-99.99,0.000000,,2013-04-27 05:40:00,
2013-04-26 23:22:00,58.0,37.0,30.27,SSE,163,4.0,6.0,46,-99.99,,,-99.99,0.000000,,2013-04-27 06:22:00,
2013-04-26 23:32:00,58.0,37.0,30.27,SSE,163,4.0,6.0,46,-99.99,,,-99.99,0.000000,,2013-04-27 06:32:00,
2013-04-26 23:40:00,52.0,38.0,30.27,SE,139,3.0,4.0,58,-99.99,,,-99.99,0.000000,,2013-04-27 06:40:00,